Year,Month,Day,Hour,Minute,Value (Times are PST for temperature in C)
2018,02,23,10,30,2.10
2018,02,23,10,31,2.10
2018,02,23,10,32,2.10
2018,02,23,10,33,2.00
2018,02,23,10,34,2.00
2018,02,23,10,35,2.00
2018,02,23,10,36,2.00
2018,02,23,10,37,2.00
2018,02,23,10,38,2.00
2018,02,23,10,39,1.90
2018,02,23,10,40,1.90
2018,02,23,10,41,1.90
2018,02,23,10,42,1.80
2018,02,23,10,43,1.80
2018,02,23,10,44,1.80
2018,02,23,10,45,1.80
2018,02,23,10,46,1.80
2018,02,23,10,47,1.90
2018,02,23,10,48,1.90
2018,02,23,10,49,1.90
2018,02,23,10,50,1.90
2018,02,23,10,51,1.90
2018,02,23,10,52,1.90
2018,02,23,10,53,2.00
2018,02,23,10,54,2.00
2018,02,23,10,55,2.00
2018,02,23,10,56,2.10
2018,02,23,10,57,2.10
2018,02,23,10,58,2.10
2018,02,23,10,59,2.10
2018,02,23,11,00,2.10
2018,02,23,11,01,2.10
2018,02,23,11,02,2.20
2018,02,23,11,03,2.20
2018,02,23,11,04,2.10
2018,02,23,11,05,2.10
2018,02,23,11,06,2.10
2018,02,23,11,07,2.10
2018,02,23,11,08,2.10
2018,02,23,11,09,2.10
2018,02,23,11,10,2.10
2018,02,23,11,11,2.20
2018,02,23,11,12,2.20
2018,02,23,11,13,2.20
2018,02,23,11,14,2.20
2018,02,23,11,15,2.30
2018,02,23,11,16,2.40
2018,02,23,11,17,2.50
2018,02,23,11,18,2.60
2018,02,23,11,19,2.70
2018,02,23,11,20,2.70
2018,02,23,11,21,2.70
2018,02,23,11,22,2.70
2018,02,23,11,23,2.70
2018,02,23,11,24,2.70
2018,02,23,11,25,2.70
2018,02,23,11,26,2.70
2018,02,23,11,27,2.70
2018,02,23,11,28,2.70
2018,02,23,11,29,2.70
2018,02,23,11,30,2.60
2018,02,23,11,31,2.50
2018,02,23,11,32,2.50
2018,02,23,11,33,2.50
2018,02,23,11,34,2.40
2018,02,23,11,35,2.40
2018,02,23,11,36,2.40
2018,02,23,11,37,2.40
2018,02,23,11,38,2.30
2018,02,23,11,39,2.20
2018,02,23,11,40,2.20
2018,02,23,11,41,2.30
2018,02,23,11,42,2.30
2018,02,23,11,43,2.20
2018,02,23,11,44,2.20
2018,02,23,11,45,2.30
2018,02,23,11,46,2.30
2018,02,23,11,47,2.30
2018,02,23,11,48,2.20
2018,02,23,11,49,2.20
2018,02,23,11,50,2.20
2018,02,23,11,51,2.20
2018,02,23,11,52,2.10
2018,02,23,11,53,2.10
2018,02,23,11,54,2.00
2018,02,23,11,55,2.00
2018,02,23,11,56,1.90
2018,02,23,11,57,1.90
2018,02,23,11,58,1.90
2018,02,23,11,59,1.90
2018,02,23,12,00,1.90
2018,02,23,12,01,1.90
2018,02,23,12,02,1.90
2018,02,23,12,03,1.90
2018,02,23,12,04,1.90
2018,02,23,12,05,1.90
2018,02,23,12,06,1.90
2018,02,23,12,07,1.80
2018,02,23,12,08,1.80
2018,02,23,12,09,1.90
2018,02,23,12,10,1.90
2018,02,23,12,11,1.90
2018,02,23,12,12,1.90
2018,02,23,12,13,1.90
2018,02,23,12,14,1.90
2018,02,23,12,15,1.90
2018,02,23,12,16,1.90
2018,02,23,12,17,1.90
2018,02,23,12,18,1.90
2018,02,23,12,19,1.90
2018,02,23,12,20,1.80
2018,02,23,12,21,1.80
2018,02,23,12,22,1.90
2018,02,23,12,23,1.90
2018,02,23,12,24,1.90
2018,02,23,12,25,1.90
2018,02,23,12,26,1.80
2018,02,23,12,27,1.80
2018,02,23,12,28,1.80
2018,02,23,12,29,1.80
2018,02,23,12,30,1.80
2018,02,23,12,31,1.80
2018,02,23,12,32,1.80
2018,02,23,12,33,1.80
2018,02,23,12,34,1.80
2018,02,23,12,35,1.80
2018,02,23,12,36,1.80
2018,02,23,12,37,1.80
2018,02,23,12,38,1.80
2018,02,23,12,39,1.90
2018,02,23,12,40,1.90
2018,02,23,12,41,1.90
2018,02,23,12,42,1.90
2018,02,23,12,43,1.90
2018,02,23,12,44,2.00
2018,02,23,12,45,2.00
2018,02,23,12,46,2.00
2018,02,23,12,47,2.00
2018,02,23,12,48,2.00
2018,02,23,12,49,2.00
2018,02,23,12,50,2.00
2018,02,23,12,51,2.00
2018,02,23,12,52,2.00
2018,02,23,12,53,2.10
2018,02,23,12,54,2.10
2018,02,23,12,55,2.10
2018,02,23,12,56,2.10
2018,02,23,12,57,2.20
2018,02,23,12,58,2.20
2018,02,23,12,59,2.20
2018,02,23,13,00,2.20
2018,02,23,13,01,2.20
2018,02,23,13,02,2.30
2018,02,23,13,03,2.40
2018,02,23,13,04,2.40
2018,02,23,13,05,2.40
2018,02,23,13,06,2.40
2018,02,23,13,07,2.50
2018,02,23,13,08,2.50
2018,02,23,13,09,2.60
2018,02,23,13,10,2.60
2018,02,23,13,11,2.70
2018,02,23,13,12,2.70
2018,02,23,13,13,2.70
2018,02,23,13,14,2.70
2018,02,23,13,15,2.70
2018,02,23,13,16,2.80
2018,02,23,13,17,2.80
2018,02,23,13,18,2.90
2018,02,23,13,19,2.90
2018,02,23,13,20,2.90
2018,02,23,13,21,2.90
2018,02,23,13,22,2.90
2018,02,23,13,23,2.90
2018,02,23,13,24,2.80
2018,02,23,13,25,2.80
2018,02,23,13,26,2.80
2018,02,23,13,27,2.80
2018,02,23,13,28,2.70
2018,02,23,13,29,2.70
2018,02,23,13,30,2.70
2018,02,23,13,31,2.70
2018,02,23,13,32,2.70
2018,02,23,13,33,2.70
2018,02,23,13,34,2.80
2018,02,23,13,35,2.80
2018,02,23,13,36,2.80
2018,02,23,13,37,2.90
2018,02,23,13,38,2.90
2018,02,23,13,39,2.90
2018,02,23,13,40,2.90
2018,02,23,13,41,2.90
2018,02,23,13,42,2.90
2018,02,23,13,43,2.90
2018,02,23,13,44,2.90
2018,02,23,13,45,2.90
2018,02,23,13,46,2.90
2018,02,23,13,47,2.90
2018,02,23,13,48,2.90
2018,02,23,13,49,2.90
2018,02,23,13,50,2.90
2018,02,23,13,51,2.90
2018,02,23,13,52,2.90
2018,02,23,13,53,3.00
2018,02,23,13,54,3.10
2018,02,23,13,55,3.10
2018,02,23,13,56,3.10
2018,02,23,13,57,3.10
2018,02,23,13,58,3.10
2018,02,23,13,59,3.10
2018,02,23,14,00,3.10
2018,02,23,14,01,3.10
2018,02,23,14,02,3.10
2018,02,23,14,03,3.10
2018,02,23,14,04,3.10
2018,02,23,14,05,3.10
2018,02,23,14,06,3.10
2018,02,23,14,07,3.10
2018,02,23,14,08,3.10
2018,02,23,14,09,3.10
2018,02,23,14,10,3.10
2018,02,23,14,11,3.10
2018,02,23,14,12,3.10
2018,02,23,14,13,3.10
2018,02,23,14,14,3.00
2018,02,23,14,15,3.00
2018,02,23,14,16,2.90
2018,02,23,14,17,2.90
2018,02,23,14,18,3.00
2018,02,23,14,19,3.10
2018,02,23,14,20,3.10
2018,02,23,14,21,3.10
2018,02,23,14,22,3.10
2018,02,23,14,23,3.10
2018,02,23,14,24,3.10
2018,02,23,14,25,3.10
2018,02,23,14,26,3.10
2018,02,23,14,27,3.10
2018,02,23,14,28,3.10
2018,02,23,14,29,3.10
2018,02,23,14,30,3.10
2018,02,23,14,31,3.10
2018,02,23,14,32,3.10
2018,02,23,14,33,3.10
2018,02,23,14,34,3.10
2018,02,23,14,35,3.10
2018,02,23,14,36,3.10
2018,02,23,14,37,3.10
2018,02,23,14,38,3.10
2018,02,23,14,39,3.10
2018,02,23,14,40,3.10
2018,02,23,14,41,3.10
2018,02,23,14,42,3.10
2018,02,23,14,43,3.10
2018,02,23,14,44,3.10
2018,02,23,14,45,3.10
2018,02,23,14,46,3.10
2018,02,23,14,47,3.20
2018,02,23,14,48,3.20
2018,02,23,14,49,3.20
2018,02,23,14,50,3.20
2018,02,23,14,51,3.20
2018,02,23,14,52,3.20
2018,02,23,14,53,3.20
2018,02,23,14,54,3.20
2018,02,23,14,55,3.20
2018,02,23,14,56,3.20
2018,02,23,14,57,3.20
2018,02,23,14,58,3.20
2018,02,23,14,59,3.30
2018,02,23,15,00,3.30
2018,02,23,15,01,3.30
2018,02,23,15,02,3.30
2018,02,23,15,03,3.30
2018,02,23,15,04,3.40
2018,02,23,15,05,3.40
2018,02,23,15,06,3.40
2018,02,23,15,07,3.40
2018,02,23,15,08,3.40
2018,02,23,15,09,3.40
2018,02,23,15,10,3.40
2018,02,23,15,11,3.40
2018,02,23,15,12,3.40
2018,02,23,15,13,3.40
2018,02,23,15,14,3.40
2018,02,23,15,15,3.40
2018,02,23,15,16,3.50
2018,02,23,15,17,3.40
2018,02,23,15,18,3.50
2018,02,23,15,19,3.50
2018,02,23,15,20,3.50
2018,02,23,15,21,3.50
2018,02,23,15,22,3.50
2018,02,23,15,23,3.60
2018,02,23,15,24,3.60
2018,02,23,15,25,3.60
2018,02,23,15,26,3.70
2018,02,23,15,27,3.70
2018,02,23,15,28,3.70
2018,02,23,15,29,3.70
2018,02,23,15,30,3.80
2018,02,23,15,31,3.80
2018,02,23,15,32,3.80
2018,02,23,15,33,3.80
2018,02,23,15,34,3.80
2018,02,23,15,35,3.80
2018,02,23,15,36,3.90
2018,02,23,15,37,3.90
2018,02,23,15,38,4.00
2018,02,23,15,39,4.00
2018,02,23,15,40,4.00
2018,02,23,15,41,4.10
2018,02,23,15,42,4.10
2018,02,23,15,43,4.20
2018,02,23,15,44,4.20
2018,02,23,15,45,4.20
2018,02,23,15,46,4.20
2018,02,23,15,47,4.20
2018,02,23,15,48,4.30
2018,02,23,15,49,4.30
2018,02,23,15,50,4.30
2018,02,23,15,51,4.30
2018,02,23,15,52,4.30
2018,02,23,15,53,4.30
2018,02,23,15,54,4.30
2018,02,23,15,55,4.20
2018,02,23,15,56,4.20
2018,02,23,15,57,4.20
2018,02,23,15,58,4.10
2018,02,23,15,59,4.10
2018,02,23,16,00,4.10
2018,02,23,16,01,4.10
2018,02,23,16,02,4.00
2018,02,23,16,03,4.00
2018,02,23,16,04,4.00
2018,02,23,16,05,4.00
2018,02,23,16,06,4.00
2018,02,23,16,07,4.00
2018,02,23,16,08,4.00
2018,02,23,16,09,4.00
2018,02,23,16,10,4.00
2018,02,23,16,11,4.10
2018,02,23,16,12,4.10
2018,02,23,16,13,4.10
2018,02,23,16,14,4.10
2018,02,23,16,15,4.10
2018,02,23,16,16,4.10
2018,02,23,16,17,4.00
2018,02,23,16,18,4.00
2018,02,23,16,19,4.00
2018,02,23,16,20,4.00
2018,02,23,16,21,4.00
2018,02,23,16,22,4.00
2018,02,23,16,23,4.00
2018,02,23,16,24,4.10
2018,02,23,16,25,4.10
2018,02,23,16,26,4.10
2018,02,23,16,27,4.00
2018,02,23,16,28,4.00
2018,02,23,16,29,4.00
2018,02,23,16,30,4.00
2018,02,23,16,31,4.00
2018,02,23,16,32,3.90
2018,02,23,16,33,3.90
2018,02,23,16,34,3.90
2018,02,23,16,35,3.90
2018,02,23,16,36,3.90
2018,02,23,16,37,3.90
2018,02,23,16,38,3.90
2018,02,23,16,39,3.90
2018,02,23,16,40,3.90
2018,02,23,16,41,3.80
2018,02,23,16,42,3.80
2018,02,23,16,43,3.80
2018,02,23,16,44,3.80
2018,02,23,16,45,3.80
2018,02,23,16,46,3.80
2018,02,23,16,47,3.80
2018,02,23,16,48,3.80
2018,02,23,16,49,3.80
2018,02,23,16,50,3.80
2018,02,23,16,51,3.80
2018,02,23,16,52,3.80
2018,02,23,16,53,3.80
2018,02,23,16,54,3.80
2018,02,23,16,55,3.80
